Sidney-Richland, MT

10:04 PM MDT on September 25, 2017 (GMT -0600)
Sidney-Richland Municipal

Weather History for KSDY - December, 2013

Change the Weather History Date:

Wednesday, December 18, 2013

  Actual Average Record
Temperature  
Mean Temperature 19 °F -  
Max Temperature 37 °F 28 °F 62 °F (1979)
Min Temperature 1 °F 6 °F -27 °F (1955)
Degree Days  
Heating Degree Days 46    
Moisture  
Dew Point 12 °F    
Average Humidity 82    
Maximum Humidity 93    
Minimum Humidity 65    
Precipitation  
Precipitation 0.01 in - - ()
Sea Level Pressure  
Sea Level Pressure 29.83 in    
Wind  
Wind Speed 8 mph (NNW)    
Max Wind Speed 23 mph    
Max Gust Speed 26 mph    
Visibility 10 miles    
Events      
Averages and records for this station are not official NWS values.
T = Trace of Precipitation, MM = Missing Value Source: NWS Daily Summary

Daily Weather History Graph

Daily Weather History Graph

Search for Another Location

Airport or City:

Trip Planner

Search our weather history database for the weather conditions in past years. The results will help you decide how hot, cold, wet, or windy it might be!

Date:

Astronomy

Dec. 18, 2013 Rise Set
Actual Time 7:41 AM MST 4:06 PM MST
Civil Twilight 7:04 AM MST 4:42 PM MST
Nautical Twilight 6:25 AM MST 5:21 PM MST
Astronomical Twilight 5:47 AM MST 5:59 PM MST
Moon 5:46 PM MST (12/18) 8:16 AM MST (12/18)
Length of Visible Light 9h 37m
Length of Day
8h 25m
Full, 98% of the Moon is Illuminated
Dec 18
Full
Dec 25
Last Quarter
Jan 1
New
Jan 7
First Quarter
Jan 15
Full

Hourly Weather History & Observations

Time (MST) Temp. Windchill Dew Point Humidity Pressure Visibility Wind Dir Wind Speed Gust Speed Precip Events Conditions
12:15 AM 21.2 °F 10.9 °F 19.4 °F 93% 29.68 in 10.0 mi SSW 9.2 mph - N/A   Clear
12:35 AM 21.2 °F 16.4 °F 17.6 °F 86% 29.67 in 10.0 mi South 3.5 mph - N/A   Clear
12:55 AM 21.2 °F 12.6 °F 17.6 °F 86% 29.68 in 10.0 mi South 6.9 mph - N/A   Clear
1:15 AM 21.2 °F 11.7 °F 19.4 °F 93% 29.67 in 10.0 mi SSW 8.1 mph - N/A   Clear
1:35 AM 21.2 °F 11.7 °F 17.6 °F 86% 29.67 in 10.0 mi South 8.1 mph - N/A   Clear
1:55 AM 21.2 °F 11.7 °F 17.6 °F 86% 29.67 in 10.0 mi SSW 8.1 mph - N/A   Clear
2:15 AM 23.0 °F 15.8 °F 19.4 °F 86% 29.67 in 10.0 mi South 5.8 mph - N/A   Clear
2:35 AM 23.0 °F 15.8 °F 21.2 °F 93% 29.67 in 10.0 mi SSW 5.8 mph - N/A   Clear
2:55 AM 21.2 °F 11.7 °F 19.4 °F 93% 29.66 in 10.0 mi SSW 8.1 mph - N/A   Clear
3:15 AM 21.2 °F - 17.6 °F 86% 29.66 in 10.0 mi Calm Calm - N/A   Clear
3:35 AM 19.4 °F 12.8 °F 17.6 °F 93% 29.66 in 10.0 mi South 4.6 mph - N/A   Clear
4:15 AM 21.2 °F 12.6 °F 17.6 °F 86% 29.65 in 10.0 mi South 6.9 mph - N/A   Clear
4:35 AM 21.2 °F 14.9 °F 19.4 °F 93% 29.65 in 10.0 mi SSE 4.6 mph - N/A   Clear
4:55 AM 21.2 °F 14.9 °F 19.4 °F 93% 29.65 in 10.0 mi SSE 4.6 mph - N/A   Clear
5:15 AM 21.2 °F - 19.4 °F 93% 29.64 in 10.0 mi Calm Calm - N/A   Clear
5:55 AM 21.2 °F - 19.4 °F 93% 29.63 in 10.0 mi Calm Calm - N/A   Clear
6:15 AM 21.2 °F - 19.4 °F 93% 29.64 in 10.0 mi Calm Calm - N/A   Clear
6:35 AM 21.2 °F - 15.8 °F 80% 29.64 in 10.0 mi Calm Calm - N/A   Clear
6:55 AM 24.8 °F 20.5 °F 19.4 °F 80% 29.64 in 10.0 mi SSE 3.5 mph - N/A   Clear
7:15 AM 21.2 °F 16.4 °F 17.6 °F 86% 29.65 in 10.0 mi ESE 3.5 mph - N/A   Clear
7:35 AM 21.2 °F 16.4 °F 19.4 °F 93% 29.65 in 10.0 mi NE 3.5 mph - N/A   Clear
7:55 AM 23.0 °F - 21.2 °F 93% 29.66 in 10.0 mi Calm Calm - N/A   Clear
8:15 AM 30.2 °F 25.4 °F 28.4 °F 93% 29.66 in 10.0 mi West 4.6 mph - N/A   Clear
8:35 AM 33.8 °F 28.6 °F 24.8 °F 70% 29.67 in 10.0 mi West 5.8 mph - N/A   Clear
8:55 AM 37.4 °F 30.3 °F 26.6 °F 65% 29.68 in 10.0 mi West 10.4 mph - N/A   Clear
9:15 AM 37.4 °F 28.9 °F 26.6 °F 65% 29.68 in 10.0 mi WNW 13.8 mph - N/A   Clear
9:35 AM - - - N/A% - 10.0 mi North - - N/A   Clear
9:55 AM - - - N/A% - 10.0 mi North - - N/A   Clear
10:15 AM - - - N/A% - 10.0 mi North - - N/A   Clear
10:35 AM - - - N/A% - 10.0 mi North - - N/A   Clear
10:55 AM - - - N/A% - 10.0 mi North - - N/A   Clear
11:15 AM - - - N/A% - 10.0 mi North - - N/A   Clear
11:35 AM - - - N/A% - 10.0 mi North - - N/A   Partly Cloudy
11:55 AM - - - N/A% - 10.0 mi North - - 0.01 in   Mostly Cloudy
12:15 PM - - - N/A% 29.77 in 10.0 mi NW 17.3 mph - N/A   Mostly Cloudy
12:35 PM 33.8 °F 21.6 °F 28.4 °F 81% 29.77 in 10.0 mi NNW 23.0 mph 26.5 mph N/A   Mostly Cloudy
12:55 PM - - - N/A% - 10.0 mi North - - N/A   Partly Cloudy
1:15 PM - - - N/A% - 10.0 mi North - - N/A   Mostly Cloudy
1:35 PM - - - N/A% - 10.0 mi North - - N/A   Overcast
1:55 PM - - - N/A% - 10.0 mi North - - N/A   Overcast
2:15 PM - - - N/A% - 10.0 mi North - - N/A   Overcast
2:35 PM - - - N/A% - 10.0 mi North - - N/A   Overcast
2:55 PM - - - N/A% - 10.0 mi North - - N/A   Overcast
3:16 PM - - - N/A% - 10.0 mi North - - N/A   Overcast
3:35 PM - - - N/A% - 10.0 mi North - - N/A   Overcast
3:55 PM - - - N/A% 29.92 in 10.0 mi North 20.7 mph 26.5 mph N/A   Overcast
4:15 PM 17.6 °F 2.2 °F 10.4 °F 73% 29.94 in 10.0 mi North 17.3 mph 21.9 mph N/A   Scattered Clouds
4:35 PM 15.8 °F 0.3 °F 10.4 °F 79% 29.96 in 10.0 mi North 16.1 mph - N/A   Scattered Clouds
4:55 PM 15.8 °F 1.4 °F 10.4 °F 79% 29.96 in 10.0 mi North 13.8 mph 19.6 mph N/A   Scattered Clouds
5:55 PM 12.2 °F -1.8 °F 5.0 °F 73% 30.01 in 10.0 mi North 11.5 mph - N/A   Overcast
6:15 PM 10.4 °F -4.1 °F 3.2 °F 73% 30.02 in 10.0 mi North 11.5 mph - N/A   Mostly Cloudy
6:36 PM 10.4 °F -6.0 °F 3.2 °F 73% 30.01 in 10.0 mi North 15.0 mph 18.4 mph N/A   Partly Cloudy
6:55 PM 8.6 °F -7.0 °F 1.4 °F 73% 30.02 in 10.0 mi North 12.7 mph - N/A   Clear
7:15 PM 8.6 °F -7.7 °F -0.4 °F 67% 30.02 in 10.0 mi North 13.8 mph - N/A   Clear
7:36 PM 6.8 °F -10.0 °F -0.4 °F 72% 30.04 in 10.0 mi North 13.8 mph - N/A   Clear
8:15 PM 6.8 °F -9.3 °F -0.4 °F 72% 30.06 in 10.0 mi North 12.7 mph - N/A   Overcast
8:35 PM 5.0 °F -11.6 °F -2.2 °F 72% 30.07 in 10.0 mi North 12.7 mph - N/A   Partly Cloudy
8:55 PM 5.0 °F -8.1 °F -0.4 °F 78% 30.09 in 10.0 mi North 8.1 mph - N/A   Mostly Cloudy
9:35 PM 5.0 °F -12.3 °F -0.4 °F 78% 30.10 in 10.0 mi North 13.8 mph - N/A   Partly Cloudy
9:55 PM 5.0 °F -12.3 °F -2.2 °F 72% 30.11 in 10.0 mi North 13.8 mph - N/A   Mostly Cloudy
10:15 PM 3.2 °F -13.9 °F -0.4 °F 85% 30.11 in 10.0 mi NNE 12.7 mph - N/A   Scattered Clouds
10:35 PM 3.2 °F -13.9 °F -2.2 °F 78% 30.11 in 10.0 mi NNE 12.7 mph - N/A   Partly Cloudy
10:55 PM 3.2 °F -13.9 °F -2.2 °F 78% 30.12 in 10.0 mi NNE 12.7 mph - N/A   Partly Cloudy
11:15 PM 3.2 °F -15.3 °F -2.2 °F 78% 30.13 in 10.0 mi North 15.0 mph - N/A   Mostly Cloudy
11:35 PM 1.4 °F -16.9 °F -5.8 °F 72% 30.12 in 10.0 mi NNE 13.8 mph - N/A   Mostly Cloudy
11:55 PM 1.4 °F -15.3 °F -4.0 °F 78% 30.12 in 10.0 mi North 11.5 mph - N/A   Partly Cloudy